Location: Lane
(33.5226°N, 79.8788°W)
Time: 03:11:44
(UTC+00:00)

Explorer 7 - Pass Details

Date: 11 October 2022
Orbit: 481 x 665 km, 50.3° (Epoch: 01 December)

Event Time Altitude Azimuth Distance (km) Brightness Sun altitude
Rises 19:58:17 0° 305° (NW) 2,956 10.8 32.3°
Reaches altitude 10° 20:00:44 10° 299° (WNW) 2,021 10.1 31.9°
Maximum altitude 20:05:09 44° 228° (SW) 846 9.8 31.2°
Drops below altitude 10° 20:09:20 10° 156° (SSE) 1,908 9.8 30.5°
Sets 20:11:36 0° 149° (SSE) 2,771 10.4 30.1°
